Dewpoint
69 70 70 71 71 72 71 72 72 72 73 74 73 71 71 71 71 71 72 73 74 74 74 73 72 72 72 72 73 71 70 68 66 66 69 70 71 70 68 70 69 70 70
68 71 71 71 72 71 72 71 72 73 73 72 70 69 69 69 70 71 71 71 71 71 71 69 69 69 72 73 72 71 70 69 67 68 69 70 70 70 71 71 70 69 71
69 68 70 71 72 72 74 73 74 73 71 69 69 68 69 70 70 71 70 70 70 69 70 70 70 71 71 70 70 70 69 69 68 66 65 69 69 69 70 71 69 70 68
70 70 70 71 71 71 73 73 73 73 70 68 68 68 68 69 70 70 70 70 69 68 69 68 67 68 69 71 70 70 69 68 69 69 68 67 65 65 65 63 64 65 69
70 72 72 73 73 73 72 71 72 71 71 69 68 67 68 68 68 69 68 68 68 67 67 66 67 67 67 68 70 69 71 69 67 68 65 65 63 61 62 61 59 60 62
69 69 70 71 71 71 71 71 71 70 69 68 67 67 67 67 65 65 66 68 68 67 67 66 65 66 66 66 66 66 67 66 66 63 63 63 63 62 61 57 56 56 53
69 68 69 69 69 70 70 69 68 68 68 68 67 67 67 67 63 63 64 66 67 67 66 65 62 62 64 64 62 62 62 62 62 63 62 61 61 61 61 60 61 59 55
68 67 69 68 67 67 67 67 67 66 67 67 67 67 66 65 61 61 62 66 65 65 65 63 62 62 63 63 62 60 59 58 56 55 60 60 60 61 60 59 60 60 59
66 67 67 67 66 65 65 66 67 67 67 67 67 64 62 60 58 58 62 63 62 60 59 59 58 55 53 55 57 55 55 51 52 55 56 57 57 58 59 59 57 57 55
66 67 68 68 67 66 66 66 67 67 66 65 62 60 59 60 56 56 60 58 59 56 57 53 53 53 52 52 55 53 53 51 53 55 58 56 57 56 57 58 53 52 54
63 67 67 68 67 66 66 66 66 66 66 62 59 60 60 60 57 54 55 58 56 54 51 49 50 51 51 50 51 53 53 56 56 56 52 51 52 52 52 54 56 52 50
61 64 67 67 66 66 66 66 65 64 61 58 58 57 57 59 56 54 54 55 55 50 50 53 54 51 49 50 53 51 52 54 50 50 49 50 50 50 51 53 55 55 54
60 63 66 66 66 66 65 63 62 62 59 58 57 55 55 56 56 53 52 52 52 53 53 52 52 50 50 51 52 52 52 48 47 47 47 48 49 49 52 52 52 54 54
58 61 64 64 65 64 63 63 61 61 60 60 58 56 54 55 55 53 50 50 51 52 53 52 52 52 52 52 51 51 49 48 47 47 48 49 49 48 47 48 47 47 46
58 61 58 54 53 53 53 57 58 59 60 58 56 55 55 55 53 48 48 49 50 50 53 52 51 50 48 49 49 50 49 48 48 49 48 47 46 46 46 48 46 45 45
55 54 53 54 54 54 55 53 50 51 51 51 52 54 54 49 44 43 42 42 45 46 50 48 48 49 48 49 48 47 47 48 50 49 48 48 46 46 46 46 46 45 44
53 52 52 52 55 54 54 56 53 51 47 47 46 45 46 45 42 41 41 42 44 46 49 48 48 49 49 50 49 47 44 49 53 49 48 47 47 46 46 45 44 45 45
55 53 54 54 54 53 53 53 55 55 53 49 45 46 41 41 40 40 41 44 49 48 49 49 49 49 50 50 49 46 46 49 49 48 47 47 47 47 46 45 45 45 45
56 57 56 55 55 55 56 54 50 51 49 50 49 47 44 40 40 40 41 50 48 47 48 49 50 50 50 50 49 48 49 47 47 47 47 47 47 47 46 45 44 43 44
55 55 54 54 53 53 52 49 49 50 50 49 48 47 49 46 48 49 49 50 49 48 48 49 50 51 50 50 48 47 47 46 46 46 47 47 47 47 46 44 43 43 42
53 54 54 53 51 50 50 49 49 50 49 49 50 49 46 49 48 49 48 49 49 49 50 50 48 49 50 49 48 46 44 44 44 43 42 44 44 43 44 44 42 41 40
52 51 50 50 50 52 52 52 51 50 49 49 50 50 45 49 49 49 50 50 49 51 50 51 51 49 48 47 48 46 45 43 43 44 44 43 43 43 44 44 43 43 41
51 52 52 51 50 49 50 51 51 50 50 50 49 49 49 49 49 49 49 50 51 51 51 51 51 51 50 49 48 48 45 45 45 46 46 46 46 45 45 45 45 44 44
51 50 49 49 49 48 49 49 49 46 48 48 48 48 48 49 49 49 50 50 51 51 51 51 51 52 52 52 50 49 48 48 48 47 48 46 46 45 46 46 45 46 45
49 49 49 49 49 48 48 48 49 49 49 49 49 50 49 50 49 49 50 51 51 51 51 51 51 51 52 53 52 51 48 38 46 44 48 48 47 48 47 45 46 46 46
50 49 49 50 49 49 49 48 48 48 48 48 49 49 50 49 50 51 51 51 51 51 51 51 52 53 53 53 52 46 39 35 39 35 44 47 48 47 47 47 46 47 46
Lifted_Index
-4 -5 -5 -6 -5 -5 -5 -5 -5 -6 -6 -6 -5 -5 -4 -4 -4 -4 -3 -4 -4 -4 -4 -3 -2 -3 -3 -4 -4 -3 -3 -2 -3 -3 -3 -3 -2 -2 -1 -1 -1 -1 -2
-4 -5 -5 -5 -5 -5 -5 -6 -6 -6 -6 -5 -5 -4 -4 -4 -4 -3 -3 -3 -3 -3 -2 -2 -2 -2 -3 -3 -3 -3 -2 -2 -3 -3 -3 -2 -2 -2 -2 -1 -1 -1 -1
-5 -5 -5 -5 -5 -6 -6 -6 -6 -6 -5 -5 -4 -3 -2 -2 -3 -3 -2 -2 -2 -1 -1 -1 -1 -1 -2 -2 -2 -2 -2 -2 -3 -3 -2 -2 -1 -1 -1 -1 -1 -1 -1
-5 -5 -5 -5 -6 -6 -6 -6 -6 -5 -5 -5 -4 -2 -1 -1 -2 -2 -2 -2 -1 -1 -0 -0 -0 -0 -1 -1 -1 -2 -2 -2 -2 -2 -1 -1 -0 -0 -0 -0 -0 0 0
-4 -4 -5 -5 -5 -6 -5 -5 -5 -5 -5 -4 -3 -2 -1 -1 -1 -1 -1 -1 -1 -0 0 0 1 1 0 -1 -1 -1 -1 -1 -1 -1 -0 0 1 1 1 0 1 1 1
-3 -4 -4 -4 -5 -5 -5 -5 -5 -4 -4 -3 -2 -1 -1 -1 -1 -0 -0 -1 -1 -0 1 1 1 1 1 0 0 -0 -0 0 0 0 1 1 1 1 1 2 2 2 2
-3 -3 -3 -4 -4 -5 -5 -5 -5 -4 -3 -2 -1 -1 -1 -1 -0 0 0 -0 -0 0 1 2 2 2 1 1 1 1 1 2 2 2 2 2 3 3 3 3 4 4 3
-3 -3 -3 -3 -3 -4 -5 -5 -4 -2 -1 -1 -1 -1 -1 -1 -1 0 0 0 1 1 1 2 2 3 3 3 3 3 3 3 3 4 4 5 5 5 5 4 4 4 4
-1 -1 -2 -2 -3 -3 -4 -4 -3 -1 -0 0 -0 -1 -1 -1 -0 1 1 1 2 2 2 3 4 4 4 5 5 5 5 5 5 6 6 6 6 6 5 4 4 4 4
0 0 -1 -1 -2 -3 -3 -3 -2 -1 0 1 0 -0 -0 0 1 2 3 3 4 4 4 5 6 6 7 7 7 7 7 7 7 6 6 6 6 6 5 5 6 5 5
3 2 0 -0 -1 -2 -2 -2 -1 -0 1 1 1 0 0 2 3 5 5 6 6 6 7 7 8 8 8 8 8 7 7 7 7 6 6 6 6 6 6 7 7 7 7
5 3 1 -0 -1 -1 -1 -1 -0 1 1 1 1 1 1 3 5 6 6 7 7 7 7 8 8 8 8 8 7 7 7 7 7 7 7 7 7 7 7 8 8 8 8
6 4 1 -1 -1 -1 -1 -1 -0 0 1 1 1 1 3 4 5 6 6 7 8 8 8 8 8 8 8 7 7 7 8 8 8 8 8 8 9 9 9 9 9 9 9
6 4 1 -1 -1 -1 -1 -1 -1 -0 0 1 2 3 3 4 4 5 7 8 8 8 8 8 8 8 8 8 8 8 9 9 9 9 9 9 10 10 10 10 10 10 9
6 4 1 -0 -1 -1 -0 -0 -0 -0 1 2 3 3 3 3 5 7 8 8 8 8 7 7 8 8 8 8 8 9 9 9 9 9 9 10 10 10 10 10 10 10 10
5 4 3 1 1 1 2 2 3 2 2 3 3 3 3 4 6 8 9 8 8 8 7 7 7 8 8 8 8 8 9 9 9 9 9 9 9 9 9 10 10 10 10
6 5 4 4 3 3 4 5 5 4 4 4 4 4 5 7 8 8 8 8 8 7 7 7 7 7 7 7 7 8 9 9 8 8 9 9 9 9 9 9 10 10 9
6 6 6 5 5 5 5 6 6 6 5 6 7 7 7 8 8 8 8 7 7 6 6 6 6 6 6 7 7 8 8 8 8 8 8 8 8 9 9 9 9 9 9
6 6 6 5 5 5 6 6 6 6 7 7 8 7 7 7 7 7 7 6 6 6 6 5 5 6 6 6 7 7 8 8 8 8 8 8 8 8 8 8 8 8 8
5 5 5 5 5 6 6 6 6 7 7 7 6 6 6 6 6 6 6 6 5 5 5 5 5 5 5 6 7 7 8 8 8 8 8 8 8 8 8 8 8 8 8
4 4 4 4 4 5 5 5 5 5 5 5 5 5 6 6 5 5 5 5 5 5 5 5 5 5 5 6 7 7 8 8 8 8 9 9 9 9 9 9 9 9 9
3 3 3 4 4 4 4 4 4 4 4 5 5 5 5 5 5 4 4 4 4 4 4 4 4 5 5 6 7 7 7 8 8 8 8 9 9 9 9 9 9 9 9
3 3 3 3 4 4 4 3 4 4 4 4 4 4 4 4 4 4 4 4 4 4 4 4 4 4 5 6 6 6 7 7 8 8 8 8 9 9 9 9 9 8 8
3 3 3 3 4 4 4 4 4 4 4 4 4 4 3 3 3 3 3 3 3 3 3 4 4 4 4 5 6 6 6 7 7 8 8 8 8 8 8 8 8 8 8
3 3 3 3 3 3 3 3 3 3 3 2 2 2 2 2 2 2 2 2 2 3 3 4 4 4 4 5 5 6 6 6 7 7 7 8 8 8 8 8 8 7 7
3 3 3 3 3 3 3 2 2 2 2 2 1 1 1 1 1 1 1 2 2 2 3 3 4 4 4 4 5 5 5 6 6 7 7 7 7 7 7 7 7 7 7